Regional Weather Roundup
Issued by NWS

Home | Current Version | Previous Version | Graphics & Text | Print | Product List | Glossary On
Versions: 1 2 3 4 5 6 7 8 9 10 11 12 13 14 15 16 17 18 19 20 21 22 23 24 25 26 27 28 29 30 31 32 33 34 35 36 37 38 39 40 41 42 43 44 45 46 47 48 49 50
000
ASUS43 KOAX 180610
RWRNE

WEATHER ROUNDUP FOR NEBRASKA
NATIONAL WEATHER SERVICE OMAHA NE
1200 AM CST SAT NOV 18 2017

NOTES: SATELLITE DATA IS BEING USED TO AUGMENT CLOUD COVER ABOVE
       12000 FEET.
       "FAIR" INDICATES FEW OR NO CLOUDS BELOW 12,000 FEET WITH NO
       SIGNIFICANT WEATHER AND/OR OBSTRUCTIONS TO VISIBILITY.


NEZ001>004-019>022-054>056-180700-
NEBRASKA PANHANDLE

CITY           SKY/WX    TMP DP  RH WIND       PRES   REMARKS
SCOTTSBLUFF    CLOUDY    39  29  67 NW18G24   29.89R WCI  30
6HR MIN TEMP:  39; 6HR MAX TEMP:  46;

ALLIANCE       CLOUDY    36  35  96 N15       29.83R WCI  27
6HR MIN TEMP:  36; 6HR MAX TEMP:  39;

CHADRON        CLOUDY    37  35  92 NW5       29.88R WCI  33
6HR MIN TEMP:  36; 6HR MAX TEMP:  41; 6HR PCP:  0.03;

GORDON         CLOUDY    37  34  91 NW10      29.83R WCI  29
6HR MIN TEMP:  35; 6HR MAX TEMP:  40; 6HR PCP:  0.02;

KIMBALL        CLOUDY    34  30  87 NW20G26   29.87R WCI  22
SIDNEY         CLOUDY    36  32  85 NW20      29.84R WCI  25
6HR MIN TEMP:  36; 6HR MAX TEMP:  43; 6HR PCP:  0.04;

$$

NEZ057>060-069>072-079>082-180700-
SOUTHWEST NEBRASKA

CITY           SKY/WX    TMP DP  RH WIND       PRES   REMARKS
NORTH PLATTE   LGT RAIN  41  38  89 N8        29.75R
6HR MIN TEMP:  40; 6HR MAX TEMP:  47; 6HR PCP:  0.01;

LEXINGTON      LGT RAIN  41  38  90 N9        29.70F
MCCOOK         RAIN      42  40  92 NW8       29.73R FOG
6HR MIN TEMP:  42; 6HR MAX TEMP:  52; 6HR PCP:  0.04;

OGALLALA       CLOUDY    42  40  93 N7        29.77R
$$

NEZ005>010-023>029-035>040-094-180700-
NORTH CENTRAL NEBRASKA

CITY           SKY/WX    TMP DP  RH WIND       PRES   REMARKS
VALENTINE      LGT RAIN  37  34  89 NW10      29.82R WCI  30
6HR MIN TEMP:  37; 6HR MAX TEMP:  43; 6HR PCP:  0.04;

AINSWORTH      LGT RAIN  35  35  99 N14       29.80R WCI  26
BROKEN BOW     CLOUDY    40  36  86 N15       29.72R WCI  32
6HR MIN TEMP:  40; 6HR MAX TEMP:  46; 6HR PCP:  0.10;

O`NEILL        CLOUDY    38  35  87 N12       29.73R WCI  31
ORD            CLOUDY    40  37  89 N14       29.71R WCI  32
6HR MIN TEMP:  40; 6HR MAX TEMP:  47; 6HR PCP:  0.14;

THEDFORD       LGT RAIN  37  35  94 N12G17    29.78R WCI  29
$$

NEZ041-046>049-061>064-073>077-083>087-180700-
SOUTH CENTRAL NEBRASKA

CITY           SKY/WX    TMP DP  RH WIND       PRES   REMARKS
GRAND ISLAND   RAIN      40  40 100 N16       29.66F FOG     WCI  31
6HR MIN TEMP:  40; 6HR MAX TEMP:  47; 6HR PCP:  0.16;

AURORA         CLOUDY    40  38  93 N20       29.64R WCI  31
HASTINGS       CLOUDY    41  37  86 N18G28    29.64F
6HR MIN TEMP:  40; 6HR MAX TEMP:  47; 6HR PCP: TRACE;

HEBRON         CLOUDY    46  38  76 N20G28    29.59R
HOLDREGE       LGT RAIN  40  39  97 N18       29.66F WCI  31
KEARNEY        RAIN      40  39  97 N16       29.69  WCI  31
YORK           LGT RAIN  41  41 100 N25G31    29.60F
$$

NEZ011>018-030>034-042>045-180700-
NORTHEAST NEBRASKA

CITY           SKY/WX    TMP DP  RH WIND       PRES   REMARKS
NORFOLK        LGT RAIN  40  38  93 N12       29.67R WCI  33
6HR MIN TEMP:  39; 6HR MAX TEMP:  46; 6HR PCP:  0.06;

ALBION         LGT RAIN  40  38  91 N13       29.67F WCI  33
BLAIR          CLOUDY    45  40  85 N16       29.62R
COLUMBUS       LGT RAIN  41  39  93 N14       29.66S
FREMONT        RAIN      44  38  81 N9G16     29.65R
TEKAMAH        LGT RAIN  43  39  86 N14       29.66R
6HR MIN TEMP:  43; 6HR MAX TEMP:  50; 6HR PCP: TRACE;

WAYNE          LGT RAIN  40  37  91 N6        29.71R
$$

NEZ050>053-065>068-078-088>093-180700-
SOUTHEAST NEBRASKA

CITY           SKY/WX    TMP DP  RH WIND       PRES   REMARKS
LINCOLN        CLOUDY    45  39  79 N18       29.61R
6HR MIN TEMP:  45; 6HR MAX TEMP:  54; 6HR PCP: TRACE;

OMAHA EPPLEY   CLOUDY    48  41  76 N21       29.57F
6HR MIN TEMP:  45; 6HR MAX TEMP:  57;

BEATRICE       CLOUDY    49  42  76 N22G30    29.54R
FALLS CITY     CLOUDY    56  53  90 N16G24    29.45F
6HR MIN TEMP:  55; 6HR MAX TEMP:  58; 6HR PCP: TRACE;

NEBRASKA CITY  CLOUDY    51  51 100 N18       29.53R FOG
PLATTSMOUTH    LGT RAIN  48  45  89 N9G22     29.54F
$$

NEZ044-045-051>053-067-180700-
OMAHA AREA

CITY           SKY/WX    TMP DP  RH WIND       PRES   REMARKS
OMAHA EPPLEY   CLOUDY    48  41  76 N21       29.57F
6HR MIN TEMP:  45; 6HR MAX TEMP:  57;

BLAIR          CLOUDY    45  40  85 N16       29.62R
FREMONT        RAIN      44  38  81 N9G16     29.65R
MILLARD        CLOUDY    48  42  81 N10G21    29.58S
OFFUTT AFB     CLOUDY    49  43  82 N18G24    29.54F
PLATTSMOUTH    LGT RAIN  48  45  89 N9G22     29.54F
WAHOO          LGT RAIN  44  39  85 N20G29    29.60F
$$



USA.gov is the U.S. government's official web portal to all federal, state and local government web resources and services.